Wetterdaten: Samstag, 25.01.2014
Datum Zeit Temperatur Luftfeuchte Luftdruck Regen Wind Richtung Richtung Taupunkt Windchill Windben
25.01.2014 00:00 -1,4 C 88 % 1017,0 hPa 0,0 l/m 0,5 km/h (0 Bft) S 180 -3,1 C -1,3 C 0,0 km/h (0 Bft)
25.01.2014 00:05 -1,4 C 88 % 1017,1 hPa 0,0 l/m 0,3 km/h (0 Bft) S-SO 157 -3,1 C -1,3 C 2,9 km/h (1 Bft)
25.01.2014 00:10 -1,4 C 88 % 1017,1 hPa 0,0 l/m 1,3 km/h (1 Bft) S 180 -3,1 C -1,3 C 6,8 km/h (2 Bft)
25.01.2014 00:15 -1,4 C 88 % 1017,1 hPa 0,0 l/m 2,6 km/h (1 Bft) S-SO 157 -3,1 C -1,6 C 4,5 km/h (1 Bft)
25.01.2014 00:20 -1,4 C 88 % 1017,1 hPa 0,0 l/m 2,7 km/h (1 Bft) S-SW 202 -3,1 C -1,7 C 0,0 km/h (0 Bft)
25.01.2014 00:25 -1,4 C 88 % 1016,9 hPa 0,0 l/m 1,4 km/h (1 Bft) S 180 -3,1 C -1,3 C 2,9 km/h (1 Bft)
25.01.2014 00:30 -1,4 C 88 % 1016,9 hPa 0,0 l/m 1,6 km/h (1 Bft) S-SW 202 -3,1 C -1,3 C 3,2 km/h (1 Bft)
25.01.2014 00:35 -1,4 C 88 % 1016,9 hPa 0,0 l/m 2,7 km/h (1 Bft) SO 135 -3,1 C -1,7 C 5,0 km/h (1 Bft)
25.01.2014 00:40 -1,4 C 88 % 1016,9 hPa 0,0 l/m 3,2 km/h (1 Bft) SO 135 -3,1 C -2,0 C 6,9 km/h (2 Bft)
25.01.2014 00:45 -1,4 C 88 % 1017,1 hPa 0,0 l/m 2,4 km/h (1 Bft) O-SO 112 -3,1 C -1,4 C 2,6 km/h (1 Bft)
25.01.2014 00:50 -1,3 C 88 % 1017,1 hPa 0,0 l/m 2,9 km/h (1 Bft) O-SO 112 -3,0 C -1,8 C 7,4 km/h (2 Bft)
25.01.2014 00:53 -1,3 C 88 % 1017,1 hPa 0,0 l/m 3,7 km/h (1 Bft) O-SO 112 -3,0 C -2,3 C 3,9 km/h (1 Bft)
25.01.2014 00:55 -1,3 C 88 % 1017,1 hPa 0,0 l/m 3,7 km/h (1 Bft) O-SO 112 -3,0 C -2,3 C 3,9 km/h (1 Bft)
25.01.2014 01:00 -1,4 C 88 % 1017,1 hPa 0,0 l/m 1,6 km/h (1 Bft) S-SO 157 -3,1 C -1,3 C 0,0 km/h (0 Bft)
25.01.2014 01:05 -1,4 C 88 % 1016,9 hPa 0,0 l/m 0,5 km/h (0 Bft) S 180 -3,1 C -1,3 C 0,0 km/h (0 Bft)
25.01.2014 01:10 -1,5 C 88 % 1016,9 hPa 0,0 l/m 0,0 km/h (0 Bft) S-SW 202 -3,2 C -1,4 C 0,0 km/h (0 Bft)
25.01.2014 01:15 -1,5 C 88 % 1016,9 hPa 0,0 l/m 0,0 km/h (0 Bft) S 180 -3,2 C -1,4 C 0,0 km/h (0 Bft)
25.01.2014 01:20 -1,5 C 88 % 1016,9 hPa 0,0 l/m 0,0 km/h (0 Bft) SO 135 -3,2 C -1,5 C 0,0 km/h (0 Bft)
25.01.2014 01:25 -1,6 C 88 % 1016,9 hPa 0,0 l/m 0,0 km/h (0 Bft) SO 135 -3,3 C -1,5 C 0,0 km/h (0 Bft)
25.01.2014 01:30 -1,6 C 88 % 1016,9 hPa 0,0 l/m 0,3 km/h (0 Bft) O 90 -3,3 C -1,5 C 0,0 km/h (0 Bft)
25.01.2014 01:35 -1,6 C 88 % 1016,9 hPa 0,0 l/m 0,2 km/h (0 Bft) O 90 -3,3 C -1,6 C 0,0 km/h (0 Bft)
25.01.2014 01:40 -1,7 C 88 % 1016,9 hPa 0,0 l/m 0,6 km/h (0 Bft) SO 135 -3,4 C -1,7 C 0,0 km/h (0 Bft)
25.01.2014 01:45 -1,8 C 88 % 1016,9 hPa 0,0 l/m 1,0 km/h (0 Bft) O-SO 112 -3,5 C -1,7 C 0,0 km/h (0 Bft)
25.01.2014 01:50 -1,8 C 88 % 1016,9 hPa 0,0 l/m 0,6 km/h (0 Bft) SO 135 -3,5 C -1,7 C 0,0 km/h (0 Bft)
25.01.2014 01:55 -1,8 C 88 % 1016,9 hPa 0,0 l/m 0,3 km/h (0 Bft) SO 135 -3,5 C -1,8 C 0,0 km/h (0 Bft)
25.01.2014 02:00 -1,9 C 88 % 1016,9 hPa 0,0 l/m 0,0 km/h (0 Bft) SO 135 -3,6 C -1,9 C 0,0 km/h (0 Bft)
25.01.2014 02:05 -2,0 C 88 % 1016,9 hPa 0,0 l/m 0,0 km/h (0 Bft) O-SO 112 -3,7 C -1,9 C 0,0 km/h (0 Bft)
25.01.2014 02:10 -1,9 C 88 % 1016,9 hPa 0,0 l/m 0,0 km/h (0 Bft) O-SO 112 -3,6 C -1,9 C 0,0 km/h (0 Bft)
25.01.2014 02:15 -1,8 C 89 % 1016,9 hPa 0,0 l/m 0,6 km/h (0 Bft) O-SO 112 -3,4 C -1,8 C 2,3 km/h (1 Bft)
25.01.2014 02:20 -1,6 C 89 % 1016,9 hPa 0,0 l/m 1,4 km/h (1 Bft) O-SO 112 -3,2 C -1,7 C 0,0 km/h (0 Bft)
25.01.2014 02:25 -1,6 C 89 % 1016,8 hPa 0,0 l/m 1,0 km/h (0 Bft) SO 135 -3,2 C -1,7 C 0,0 km/h (0 Bft)
25.01.2014 02:30 -1,6 C 89 % 1016,8 hPa 0,0 l/m 0,0 km/h (0 Bft) S 180 -3,2 C -1,6 C 0,0 km/h (0 Bft)
25.01.2014 02:35 -1,6 C 89 % 1016,8 hPa 0,0 l/m 0,0 km/h (0 Bft) S 180 -3,2 C -1,6 C 0,0 km/h (0 Bft)
25.01.2014 02:40 -1,7 C 89 % 1016,8 hPa 0,0 l/m 0,0 km/h (0 Bft) S 180 -3,3 C -1,6 C 0,0 km/h (0 Bft)
25.01.2014 02:45 -1,7 C 89 % 1017,0 hPa 0,0 l/m 0,0 km/h (0 Bft) S 180 -3,3 C -1,6 C 0,0 km/h (0 Bft)
25.01.2014 02:50 -1,8 C 89 % 1017,0 hPa 0,0 l/m 0,0 km/h (0 Bft) SO 135 -3,4 C -1,7 C 0,0 km/h (0 Bft)
25.01.2014 02:55 -1,8 C 89 % 1017,0 hPa 0,0 l/m 0,0 km/h (0 Bft) SO 135 -3,4 C -1,7 C 0,0 km/h (0 Bft)
25.01.2014 03:00 -1,7 C 89 % 1017,0 hPa 0,0 l/m 0,0 km/h (0 Bft) S 180 -3,3 C -1,7 C 0,0 km/h (0 Bft)
25.01.2014 03:05 -1,7 C 89 % 1017,1 hPa 0,0 l/m 0,0 km/h (0 Bft) S 180 -3,3 C -1,7 C 0,0 km/h (0 Bft)
25.01.2014 03:10 -1,8 C 89 % 1017,1 hPa 0,0 l/m 0,0 km/h (0 Bft) S 180 -3,4 C -1,7 C 0,0 km/h (0 Bft)
25.01.2014 03:15 -1,8 C 89 % 1017,1 hPa 0,0 l/m 0,0 km/h (0 Bft) S 180 -3,4 C -1,7 C 0,0 km/h (0 Bft)
25.01.2014 03:20 -1,6 C 89 % 1017,1 hPa 0,0 l/m 0,0 km/h (0 Bft) S-SO 157 -3,2 C -1,6 C 0,0 km/h (0 Bft)
25.01.2014 03:25 -1,6 C 89 % 1017,2 hPa 0,0 l/m 0,0 km/h (0 Bft) S-SO 157 -3,2 C -1,6 C 0,0 km/h (0 Bft)
25.01.2014 03:30 -1,6 C 89 % 1017,2 hPa 0,0 l/m 0,0 km/h (0 Bft) S-SO 157 -3,2 C -1,6 C 0,0 km/h (0 Bft)
25.01.2014 03:35 -1,7 C 89 % 1017,2 hPa 0,0 l/m 0,0 km/h (0 Bft) S-SO 157 -3,3 C -1,6 C 0,0 km/h (0 Bft)
25.01.2014 03:40 -1,7 C 89 % 1017,2 hPa 0,0 l/m 0,0 km/h (0 Bft) S-SO 157 -3,3 C -1,6 C 0,0 km/h (0 Bft)
25.01.2014 03:45 -1,7 C 89 % 1017,4 hPa 0,0 l/m 0,0 km/h (0 Bft) SO 135 -3,3 C -1,6 C 0,0 km/h (0 Bft)
25.01.2014 03:50 -1,6 C 89 % 1017,4 hPa 0,0 l/m 0,0 km/h (0 Bft) S 180 -3,2 C -1,6 C 0,0 km/h (0 Bft)
25.01.2014 03:55 -1,6 C 89 % 1017,4 hPa 0,0 l/m 0,0 km/h (0 Bft) S 180 -3,2 C -1,6 C 0,0 km/h (0 Bft)
25.01.2014 04:00 -1,6 C 89 % 1017,4 hPa 0,0 l/m 0,0 km/h (0 Bft) S 180 -3,2 C -1,5 C 0,0 km/h (0 Bft)
25.01.2014 04:05 -1,6 C 89 % 1017,6 hPa 0,0 l/m 0,0 km/h (0 Bft) S 180 -3,2 C -1,5 C 0,0 km/h (0 Bft)
25.01.2014 04:10 -1,6 C 89 % 1017,6 hPa 0,0 l/m 0,0 km/h (0 Bft) S-SO 157 -3,2 C -1,5 C 0,0 km/h (0 Bft)
25.01.2014 04:15 -1,6 C 89 % 1017,6 hPa 0,0 l/m 0,0 km/h (0 Bft) S-SW 202 -3,2 C -1,5 C 0,0 km/h (0 Bft)
25.01.2014 04:20 -1,6 C 89 % 1017,6 hPa 0,0 l/m 0,0 km/h (0 Bft) S-SO 157 -3,2 C -1,6 C 0,0 km/h (0 Bft)
25.01.2014 04:25 -1,7 C 89 % 1017,6 hPa 0,0 l/m 0,0 km/h (0 Bft) S-SO 157 -3,3 C -1,6 C 0,0 km/h (0 Bft)
25.01.2014 04:30 -1,8 C 89 % 1017,6 hPa 0,0 l/m 0,0 km/h (0 Bft) S 180 -3,4 C -1,7 C 0,0 km/h (0 Bft)
25.01.2014 04:35 -1,8 C 89 % 1017,6 hPa 0,0 l/m 0,0 km/h (0 Bft) S-SO 157 -3,4 C -1,7 C 0,0 km/h (0 Bft)
25.01.2014 04:40 -1,8 C 89 % 1017,6 hPa 0,0 l/m 0,0 km/h (0 Bft) S-SO 157 -3,4 C -1,7 C 0,0 km/h (0 Bft)
25.01.2014 04:45 -1,8 C 89 % 1017,6 hPa 0,0 l/m 0,0 km/h (0 Bft) S-SO 157 -3,4 C -1,7 C 0,0 km/h (0 Bft)
25.01.2014 04:50 -1,8 C 89 % 1017,6 hPa 0,0 l/m 0,0 km/h (0 Bft) S 180 -3,4 C -1,7 C 0,0 km/h (0 Bft)
25.01.2014 04:55 -1,7 C 89 % 1017,6 hPa 0,0 l/m 0,0 km/h (0 Bft) S-SO 157 -3,3 C -1,7 C 0,0 km/h (0 Bft)
25.01.2014 05:00 -1,7 C 89 % 1017,6 hPa 0,0 l/m 0,0 km/h (0 Bft) SO 135 -3,3 C -1,7 C 0,0 km/h (0 Bft)
25.01.2014 05:05 -1,7 C 89 % 1017,9 hPa 0,0 l/m 0,0 km/h (0 Bft) SO 135 -3,3 C -1,7 C 0,0 km/h (0 Bft)
25.01.2014 05:10 -1,8 C 89 % 1017,9 hPa 0,0 l/m 0,0 km/h (0 Bft) S-SW 202 -3,4 C -1,7 C 0,0 km/h (0 Bft)
25.01.2014 05:15 -1,8 C 89 % 1017,9 hPa 0,0 l/m 0,0 km/h (0 Bft) S-SO 157 -3,4 C -1,7 C 0,0 km/h (0 Bft)
25.01.2014 05:20 -1,8 C 89 % 1017,9 hPa 0,0 l/m 0,3 km/h (0 Bft) S-SO 157 -3,4 C -1,7 C 2,6 km/h (1 Bft)
25.01.2014 05:25 -1,8 C 89 % 1017,9 hPa 0,0 l/m 0,6 km/h (0 Bft) S-SW 202 -3,4 C -1,7 C 0,0 km/h (0 Bft)
25.01.2014 05:30 -1,9 C 89 % 1017,9 hPa 0,0 l/m 1,3 km/h (1 Bft) SO 135 -3,5 C -1,7 C 0,0 km/h (0 Bft)
25.01.2014 05:35 -1,8 C 90 % 1017,9 hPa 0,0 l/m 0,8 km/h (0 Bft) SO 135 -3,2 C -1,7 C 0,0 km/h (0 Bft)
25.01.2014 05:40 -1,8 C 90 % 1017,9 hPa 0,0 l/m 0,2 km/h (0 Bft) S 180 -3,2 C -1,7 C 0,0 km/h (0 Bft)
25.01.2014 05:45 -1,8 C 90 % 1018,0 hPa 0,0 l/m 0,0 km/h (0 Bft) S 180 -3,2 C -1,7 C 0,0 km/h (0 Bft)
25.01.2014 05:50 -1,7 C 90 % 1018,0 hPa 0,0 l/m 0,0 km/h (0 Bft) S 180 -3,1 C -1,7 C 0,0 km/h (0 Bft)
25.01.2014 05:55 -1,7 C 90 % 1018,0 hPa 0,0 l/m 0,0 km/h (0 Bft) S-SO 157 -3,1 C -1,6 C 2,1 km/h (1 Bft)
25.01.2014 06:00 -1,6 C 90 % 1018,0 hPa 0,0 l/m 0,5 km/h (0 Bft) S-SO 157 -3,0 C -1,6 C 3,2 km/h (1 Bft)
25.01.2014 06:05 -1,6 C 90 % 1018,2 hPa 0,0 l/m 1,3 km/h (1 Bft) S 180 -3,0 C -1,5 C 0,0 km/h (0 Bft)
25.01.2014 06:10 -1,6 C 90 % 1018,2 hPa 0,0 l/m 1,1 km/h (1 Bft) S-SO 157 -3,0 C -1,5 C 0,0 km/h (0 Bft)
25.01.2014 06:15 -1,6 C 90 % 1018,2 hPa 0,0 l/m 0,3 km/h (0 Bft) S-SW 202 -3,0 C -1,5 C 0,0 km/h (0 Bft)
25.01.2014 06:20 -1,6 C 90 % 1018,2 hPa 0,0 l/m 0,8 km/h (0 Bft) S-SO 157 -3,0 C -1,6 C 0,0 km/h (0 Bft)
25.01.2014 06:25 -1,7 C 90 % 1018,1 hPa 0,0 l/m 1,0 km/h (0 Bft) S 180 -3,1 C -1,6 C 2,6 km/h (1 Bft)
25.01.2014 06:30 -1,8 C 90 % 1018,1 hPa 0,0 l/m 1,1 km/h (1 Bft) S 180 -3,2 C -1,7 C 0,0 km/h (0 Bft)
25.01.2014 06:35 -1,8 C 90 % 1018,1 hPa 0,0 l/m 1,3 km/h (1 Bft) O-SO 112 -3,2 C -1,7 C 2,7 km/h (1 Bft)
25.01.2014 06:40 -1,8 C 90 % 1018,1 hPa 0,0 l/m 1,6 km/h (1 Bft) S 180 -3,2 C -1,7 C 3,9 km/h (1 Bft)
25.01.2014 06:45 -1,8 C 90 % 1018,2 hPa 0,0 l/m 2,1 km/h (1 Bft) S 180 -3,2 C -1,7 C 2,6 km/h (1 Bft)
25.01.2014 06:50 -1,8 C 90 % 1018,2 hPa 0,0 l/m 2,1 km/h (1 Bft) S 180 -3,2 C -1,7 C 4,7 km/h (1 Bft)
25.01.2014 06:53 -1,8 C 90 % 1018,2 hPa 0,0 l/m 2,4 km/h (1 Bft) S 180 -3,2 C -1,9 C 0,0 km/h (0 Bft)
25.01.2014 06:55 -1,8 C 90 % 1018,2 hPa 0,0 l/m 2,4 km/h (1 Bft) S 180 -3,2 C -1,9 C 0,0 km/h (0 Bft)
25.01.2014 07:00 -1,7 C 90 % 1018,2 hPa 0,0 l/m 2,6 km/h (1 Bft) S 180 -3,1 C -1,9 C 5,1 km/h (1 Bft)
25.01.2014 07:05 -1,8 C 90 % 1018,4 hPa 0,0 l/m 1,8 km/h (1 Bft) SO 135 -3,2 C -1,6 C 4,0 km/h (1 Bft)
25.01.2014 07:10 -1,8 C 90 % 1018,4 hPa 0,0 l/m 1,9 km/h (1 Bft) S 180 -3,2 C -1,7 C 2,4 km/h (1 Bft)
25.01.2014 07:15 -1,9 C 90 % 1018,4 hPa 0,0 l/m 1,8 km/h (1 Bft) O-SO 112 -3,3 C -1,7 C 3,4 km/h (1 Bft)
25.01.2014 07:20 -2,0 C 90 % 1018,4 hPa 0,0 l/m 1,3 km/h (1 Bft) O-SO 112 -3,4 C -1,8 C 0,0 km/h (0 Bft)
25.01.2014 07:25 -2,0 C 90 % 1018,2 hPa 0,0 l/m 0,6 km/h (0 Bft) S 180 -3,4 C -1,9 C 0,0 km/h (0 Bft)
25.01.2014 07:30 -2,0 C 90 % 1018,2 hPa 0,0 l/m 1,0 km/h (0 Bft) O-SO 112 -3,4 C -2,0 C 2,9 km/h (1 Bft)
25.01.2014 07:35 -2,1 C 90 % 1018,2 hPa 0,0 l/m 1,0 km/h (0 Bft) O-SO 112 -3,5 C -2,0 C 0,0 km/h (0 Bft)
25.01.2014 07:40 -2,0 C 90 % 1018,2 hPa 0,0 l/m 1,1 km/h (1 Bft) O-SO 112 -3,4 C -2,1 C 2,9 km/h (1 Bft)
25.01.2014 07:45 -1,9 C 90 % 1018,2 hPa 0,0 l/m 1,8 km/h (1 Bft) O 90 -3,3 C -2,1 C 3,5 km/h (1 Bft)
25.01.2014 07:50 -1,9 C 90 % 1018,2 hPa 0,0 l/m 1,9 km/h (1 Bft) S 180 -3,3 C -2,0 C 3,2 km/h (1 Bft)
25.01.2014 07:55 -1,9 C 90 % 1018,2 hPa 0,0 l/m 1,1 km/h (1 Bft) S-SO 157 -3,3 C -2,0 C 1,9 km/h (1 Bft)
25.01.2014 08:00 -2,0 C 90 % 1018,2 hPa 0,0 l/m 1,3 km/h (1 Bft) O 90 -3,4 C -1,9 C 3,4 km/h (1 Bft)
25.01.2014 08:05 -1,9 C 90 % 1018,3 hPa 0,0 l/m 1,9 km/h (1 Bft) O 90 -3,3 C -1,9 C 2,9 km/h (1 Bft)
25.01.2014 08:10 -1,8 C 90 % 1018,3 hPa 0,0 l/m 2,6 km/h (1 Bft) O-SO 112 -3,2 C -2,1 C 3,4 km/h (1 Bft)
25.01.2014 08:15 -1,9 C 90 % 1018,3 hPa 0,0 l/m 3,4 km/h (1 Bft) S-SO 157 -3,3 C -2,7 C 6,3 km/h (2 Bft)
25.01.2014 08:20 -1,8 C 90 % 1018,3 hPa 0,0 l/m 4,8 km/h (1 Bft) S 180 -3,2 C -3,4 C 6,6 km/h (2 Bft)
25.01.2014 08:25 -1,8 C 90 % 1018,4 hPa 0,0 l/m 5,1 km/h (1 Bft) SO 135 -3,2 C -3,6 C 3,2 km/h (1 Bft)
25.01.2014 08:30 -1,7 C 90 % 1018,4 hPa 0,0 l/m 3,7 km/h (1 Bft) S 180 -3,1 C -2,7 C 7,6 km/h (2 Bft)
25.01.2014 08:35 -1,6 C 90 % 1018,4 hPa 0,0 l/m 2,9 km/h (1 Bft) SO 135 -3,0 C -2,0 C 2,3 km/h (1 Bft)
25.01.2014 08:40 -1,4 C 90 % 1018,4 hPa 0,0 l/m 3,2 km/h (1 Bft) S 180 -2,8 C -2,1 C 4,5 km/h (1 Bft)
25.01.2014 08:45 -1,4 C 90 % 1018,4 hPa 0,0 l/m 3,1 km/h (1 Bft) SO 135 -2,8 C -2,1 C 3,4 km/h (1 Bft)
25.01.2014 08:50 -1,2 C 90 % 1018,4 hPa 0,0 l/m 3,2 km/h (1 Bft) O-SO 112 -2,6 C -2,0 C 6,4 km/h (2 Bft)
25.01.2014 08:55 -1,2 C 89 % 1018,4 hPa 0,0 l/m 3,1 km/h (1 Bft) S 180 -2,8 C -1,7 C 5,8 km/h (2 Bft)
25.01.2014 09:00 -1,1 C 89 % 1018,4 hPa 0,0 l/m 3,7 km/h (1 Bft) O-SO 112 -2,7 C -2,0 C 6,0 km/h (2 Bft)
25.01.2014 09:05 -1,0 C 89 % 1018,6 hPa 0,0 l/m 3,4 km/h (1 Bft) S-SO 157 -2,6 C -1,7 C 2,1 km/h (1 Bft)
25.01.2014 09:10 -0,9 C 89 % 1018,6 hPa 0,0 l/m 4,3 km/h (1 Bft) SO 135 -2,5 C -2,3 C 11,1 km/h (2 Bft)
25.01.2014 09:15 -0,8 C 88 % 1018,6 hPa 0,0 l/m 4,5 km/h (1 Bft) SO 135 -2,5 C -2,2 C 2,4 km/h (1 Bft)
25.01.2014 09:20 -0,6 C 88 % 1018,6 hPa 0,0 l/m 4,0 km/h (1 Bft) O 90 -2,3 C -1,8 C 6,6 km/h (2 Bft)
25.01.2014 09:25 -0,5 C 87 % 1018,4 hPa 0,0 l/m 4,0 km/h (1 Bft) O 90 -2,4 C -1,7 C 3,1 km/h (1 Bft)
25.01.2014 09:30 -0,4 C 86 % 1018,4 hPa 0,0 l/m 4,5 km/h (1 Bft) O-SO 112 -2,4 C -1,7 C 4,5 km/h (1 Bft)
25.01.2014 09:35 -0,4 C 85 % 1018,4 hPa 0,0 l/m 3,7 km/h (1 Bft) O-SO 112 -2,6 C -1,1 C 1,8 km/h (1 Bft)
25.01.2014 09:40 -0,3 C 84 % 1018,4 hPa 0,0 l/m 3,4 km/h (1 Bft) SO 135 -2,7 C -0,8 C 4,5 km/h (1 Bft)
25.01.2014 09:45 0,0 C 84 % 1018,2 hPa 0,0 l/m 3,5 km/h (1 Bft) S-SO 157 -2,4 C -0,7 C 6,1 km/h (2 Bft)
25.01.2014 09:50 0,2 C 83 % 1018,2 hPa 0,0 l/m 3,7 km/h (1 Bft) S-SO 157 -2,3 C -0,6 C 5,0 km/h (1 Bft)
25.01.2014 09:55 0,4 C 83 % 1018,2 hPa 0,0 l/m 3,5 km/h (1 Bft) S 180 -2,1 C -0,4 C 1,8 km/h (1 Bft)
25.01.2014 10:00 0,4 C 82 % 1018,2 hPa 0,0 l/m 3,2 km/h (1 Bft) O-NO 67 -2,3 C -0,1 C 7,1 km/h (2 Bft)
25.01.2014 10:05 0,3 C 80 % 1018,3 hPa 0,0 l/m 3,4 km/h (1 Bft) O 90 -2,7 C -0,2 C 6,3 km/h (2 Bft)
25.01.2014 10:10 0,0 C 79 % 1018,3 hPa 0,0 l/m 3,2 km/h (1 Bft) SO 135 -3,2 C -0,2 C 1,8 km/h (1 Bft)
25.01.2014 10:15 -0,1 C 79 % 1018,3 hPa 0,0 l/m 2,6 km/h (1 Bft) O 90 -3,3 C 0,3 C 6,4 km/h (2 Bft)
25.01.2014 10:20 -0,6 C 79 % 1018,3 hPa 0,0 l/m 2,6 km/h (1 Bft) O-SO 112 -3,8 C 0,1 C 2,3 km/h (1 Bft)
25.01.2014 10:25 -0,7 C 79 % 1018,0 hPa 0,0 l/m 2,6 km/h (1 Bft) O 90 -3,9 C -0,1 C 1,6 km/h (1 Bft)
25.01.2014 10:30 -0,5 C 79 % 1018,0 hPa 0,0 l/m 1,4 km/h (1 Bft) O-SO 112 -3,7 C 0,2 C 2,1 km/h (1 Bft)
25.01.2014 10:35 0,0 C 79 % 1018,0 hPa 0,0 l/m 0,6 km/h (0 Bft) SO 135 -3,2 C 0,5 C 0,0 km/h (0 Bft)
25.01.2014 10:40 0,7 C 80 % 1018,0 hPa 0,0 l/m 0,2 km/h (0 Bft) S 180 -2,3 C 1,2 C 0,0 km/h (0 Bft)
25.01.2014 10:45 0,9 C 79 % 1018,1 hPa 0,0 l/m 0,3 km/h (0 Bft) O 90 -2,3 C 1,6 C 0,0 km/h (0 Bft)
25.01.2014 10:50 1,1 C 79 % 1018,1 hPa 0,0 l/m 0,3 km/h (0 Bft) O 90 -2,1 C 1,9 C 0,0 km/h (0 Bft)
25.01.2014 10:55 0,7 C 79 % 1018,1 hPa 0,0 l/m 0,0 km/h (0 Bft) O 90 -2,5 C 2,0 C 0,0 km/h (0 Bft)
25.01.2014 11:00 0,8 C 79 % 1018,1 hPa 0,0 l/m 0,0 km/h (0 Bft) O 90 -2,4 C 2,1 C 0,0 km/h (0 Bft)
25.01.2014 11:05 0,7 C 78 % 1017,9 hPa 0,0 l/m 0,0 km/h (0 Bft) O-NO 67 -2,7 C 2,1 C 0,0 km/h (0 Bft)
25.01.2014 11:10 1,2 C 78 % 1017,9 hPa 0,0 l/m 0,0 km/h (0 Bft) O-NO 67 -2,2 C 2,2 C 0,0 km/h (0 Bft)
25.01.2014 11:15 1,7 C 78 % 1017,9 hPa 0,0 l/m 0,0 km/h (0 Bft) S 180 -1,7 C 3,0 C 0,0 km/h (0 Bft)
25.01.2014 11:20 2,0 C 77 % 1017,9 hPa 0,0 l/m 1,3 km/h (1 Bft) W-NW 292 -1,6 C 4,0 C 2,7 km/h (1 Bft)
25.01.2014 11:25 2,2 C 77 % 1017,8 hPa 0,0 l/m 1,4 km/h (1 Bft) W-SW 247 -1,4 C 4,3 C 0,0 km/h (0 Bft)
25.01.2014 11:30 2,4 C 75 % 1017,8 hPa 0,0 l/m 1,1 km/h (1 Bft) W-SW 247 -1,6 C 4,3 C 2,3 km/h (1 Bft)
25.01.2014 11:35 2,9 C 75 % 1017,8 hPa 0,0 l/m 1,3 km/h (1 Bft) W-SW 247 -1,1 C 4,2 C 0,0 km/h (0 Bft)
25.01.2014 11:40 3,1 C 73 % 1017,8 hPa 0,0 l/m 1,0 km/h (0 Bft) W-SW 247 -1,3 C 4,5 C 2,3 km/h (1 Bft)
25.01.2014 11:45 3,2 C 73 % 1017,6 hPa 0,0 l/m 0,8 km/h (0 Bft) W-SW 247 -1,2 C 4,5 C 2,1 km/h (1 Bft)
25.01.2014 11:50 2,9 C 72 % 1017,6 hPa 0,0 l/m 1,8 km/h (1 Bft) W-SW 247 -1,6 C 4,2 C 2,7 km/h (1 Bft)
25.01.2014 11:55 2,7 C 70 % 1017,6 hPa 0,0 l/m 2,1 km/h (1 Bft) W-SW 247 -2,2 C 3,9 C 3,1 km/h (1 Bft)
25.01.2014 12:00 2,2 C 67 % 1017,6 hPa 0,0 l/m 3,2 km/h (1 Bft) S-SW 202 -3,3 C 3,1 C 4,5 km/h (1 Bft)
25.01.2014 12:05 2,4 C 68 % 1017,3 hPa 0,0 l/m 3,4 km/h (1 Bft) W-SW 247 -2,9 C 2,7 C 2,9 km/h (1 Bft)
25.01.2014 12:10 2,7 C 67 % 1017,3 hPa 0,0 l/m 3,4 km/h (1 Bft) W-SW 247 -2,8 C 2,7 C 5,0 km/h (1 Bft)
25.01.2014 12:15 2,5 C 66 % 1017,3 hPa 0,0 l/m 3,5 km/h (1 Bft) S-SW 202 -3,2 C 2,7 C 4,3 km/h (1 Bft)
25.01.2014 12:20 2,6 C 67 % 1017,3 hPa 0,0 l/m 3,5 km/h (1 Bft) W-SW 247 -2,9 C 2,7 C 3,7 km/h (1 Bft)
25.01.2014 12:25 2,6 C 66 % 1017,1 hPa 0,0 l/m 3,4 km/h (1 Bft) W-SW 247 -3,1 C 2,8 C 4,8 km/h (1 Bft)
25.01.2014 12:30 2,5 C 65 % 1017,1 hPa 0,0 l/m 4,2 km/h (1 Bft) S-SW 202 -3,4 C 2,3 C 6,6 km/h (2 Bft)
25.01.2014 12:35 2,2 C 64 % 1017,1 hPa 0,0 l/m 4,8 km/h (1 Bft) W-SW 247 -3,9 C 1,6 C 4,2 km/h (1 Bft)
25.01.2014 12:40 2,4 C 66 % 1017,1 hPa 0,0 l/m 3,9 km/h (1 Bft) W-SW 247 -3,3 C 2,1 C 4,0 km/h (1 Bft)
25.01.2014 12:45 2,2 C 66 % 1017,1 hPa 0,0 l/m 3,5 km/h (1 Bft) S-SW 202 -3,5 C 2,3 C 7,4 km/h (2 Bft)
25.01.2014 12:50 2,3 C 66 % 1017,1 hPa 0,0 l/m 3,9 km/h (1 Bft) W-SW 247 -3,4 C 2,1 C 4,5 km/h (1 Bft)
25.01.2014 12:53 2,8 C 67 % 1017,1 hPa 0,0 l/m 3,7 km/h (1 Bft) S 180 -2,7 C 2,3 C 6,9 km/h (2 Bft)
25.01.2014 12:55 2,8 C 67 % 1017,1 hPa 0,0 l/m 3,7 km/h (1 Bft) S 180 -2,7 C 2,3 C 6,9 km/h (2 Bft)
25.01.2014 13:00 3,3 C 66 % 1017,1 hPa 0,0 l/m 3,2 km/h (1 Bft) S 180 -2,4 C 3,2 C 6,4 km/h (2 Bft)
25.01.2014 13:05 3,5 C 65 % 1017,1 hPa 0,0 l/m 3,9 km/h (1 Bft) W-SW 247 -2,4 C 3,2 C 5,0 km/h (1 Bft)
25.01.2014 13:10 2,8 C 64 % 1017,1 hPa 0,0 l/m 4,5 km/h (1 Bft) W 270 -3,3 C 2,9 C 7,1 km/h (2 Bft)
25.01.2014 13:15 2,4 C 65 % 1017,1 hPa 0,0 l/m 4,8 km/h (1 Bft) S 180 -3,5 C 2,3 C 7,7 km/h (2 Bft)
25.01.2014 13:20 2,2 C 64 % 1017,1 hPa 0,0 l/m 6,3 km/h (2 Bft) S-SW 202 -3,9 C 1,1 C 7,6 km/h (2 Bft)
25.01.2014 13:25 2,3 C 65 % 1017,2 hPa 0,0 l/m 6,4 km/h (2 Bft) S 180 -3,6 C 0,9 C 5,6 km/h (1 Bft)
25.01.2014 13:30 2,5 C 66 % 1017,2 hPa 0,0 l/m 6,0 km/h (2 Bft) SW 225 -3,2 C 1,0 C 8,0 km/h (2 Bft)
25.01.2014 13:35 2,5 C 66 % 1017,2 hPa 0,0 l/m 5,6 km/h (1 Bft) S 180 -3,2 C 1,2 C 6,6 km/h (2 Bft)
25.01.2014 13:40 2,5 C 66 % 1017,2 hPa 0,0 l/m 5,6 km/h (1 Bft) S 180 -3,2 C 1,2 C 6,3 km/h (2 Bft)
25.01.2014 13:45 2,5 C 66 % 1017,1 hPa 0,0 l/m 5,6 km/h (1 Bft) S 180 -3,2 C 1,3 C 6,4 km/h (2 Bft)
25.01.2014 13:50 2,3 C 66 % 1017,1 hPa 0,0 l/m 5,5 km/h (1 Bft) S 180 -3,4 C 1,3 C 6,9 km/h (2 Bft)
25.01.2014 13:55 2,2 C 66 % 1017,1 hPa 0,0 l/m 5,6 km/h (1 Bft) S-SW 202 -3,5 C 1,1 C 2,9 km/h (1 Bft)
25.01.2014 14:00 2,0 C 66 % 1017,1 hPa 0,0 l/m 5,0 km/h (1 Bft) S-SO 157 -3,7 C 1,1 C 8,2 km/h (2 Bft)
25.01.2014 14:05 1,9 C 66 % 1015,8 hPa 0,0 l/m 5,0 km/h (1 Bft) S 180 -3,8 C 0,9 C 5,1 km/h (1 Bft)
25.01.2014 14:10 1,9 C 67 % 1015,8 hPa 0,0 l/m 5,6 km/h (1 Bft) S 180 -3,6 C 0,6 C 3,4 km/h (1 Bft)
25.01.2014 14:15 1,9 C 66 % 1015,8 hPa 0,0 l/m 5,0 km/h (1 Bft) S-SW 202 -3,8 C 0,9 C 6,4 km/h (2 Bft)
25.01.2014 14:20 1,9 C 65 % 1015,8 hPa 0,0 l/m 5,1 km/h (1 Bft) S 180 -4,0 C 0,7 C 6,9 km/h (2 Bft)
25.01.2014 14:25 2,0 C 65 % 1015,9 hPa 0,0 l/m 5,6 km/h (1 Bft) S 180 -3,9 C 0,7 C 4,3 km/h (1 Bft)
25.01.2014 14:30 1,9 C 65 % 1015,9 hPa 0,0 l/m 5,6 km/h (1 Bft) S-SW 202 -4,0 C 0,7 C 6,1 km/h (2 Bft)
25.01.2014 14:35 1,9 C 64 % 1015,9 hPa 0,0 l/m 5,3 km/h (1 Bft) W-SW 247 -4,2 C 0,8 C 6,8 km/h (2 Bft)
25.01.2014 14:40 2,1 C 64 % 1015,9 hPa 0,0 l/m 5,0 km/h (1 Bft) S 180 -4,0 C 1,2 C 6,0 km/h (2 Bft)
25.01.2014 14:45 1,9 C 63 % 1015,4 hPa 0,0 l/m 5,5 km/h (1 Bft) S-SW 202 -4,4 C 0,9 C 6,4 km/h (2 Bft)
25.01.2014 14:50 1,8 C 64 % 1015,4 hPa 0,0 l/m 5,5 km/h (1 Bft) S-SW 202 -4,3 C 0,7 C 3,9 km/h (1 Bft)
25.01.2014 14:55 1,8 C 64 % 1015,4 hPa 0,0 l/m 5,3 km/h (1 Bft) S-SW 202 -4,3 C 0,7 C 6,0 km/h (2 Bft)
25.01.2014 15:00 1,7 C 63 % 1015,4 hPa 0,0 l/m 5,0 km/h (1 Bft) S-SW 202 -4,6 C 0,7 C 6,4 km/h (2 Bft)
25.01.2014 15:05 1,5 C 62 % 1015,5 hPa 0,0 l/m 5,0 km/h (1 Bft) S 180 -5,0 C 0,6 C 6,3 km/h (2 Bft)
25.01.2014 15:10 1,4 C 63 % 1015,5 hPa 0,0 l/m 5,5 km/h (1 Bft) S 180 -4,9 C 0,2 C 7,6 km/h (2 Bft)
25.01.2014 15:15 1,3 C 62 % 1015,5 hPa 0,0 l/m 5,3 km/h (1 Bft) S 180 -5,2 C 0,2 C 6,6 km/h (2 Bft)
25.01.2014 15:20 1,3 C 63 % 1015,5 hPa 0,0 l/m 5,1 km/h (1 Bft) S 180 -5,0 C 0,1 C 7,2 km/h (2 Bft)
25.01.2014 15:25 1,2 C 64 % 1016,2 hPa 0,0 l/m 5,5 km/h (1 Bft) S 180 -4,8 C -0,2 C 5,3 km/h (1 Bft)
25.01.2014 15:30 1,1 C 65 % 1016,2 hPa 0,0 l/m 4,8 km/h (1 Bft) S-SW 202 -4,7 C -0,1 C 6,4 km/h (2 Bft)
25.01.2014 15:35 1,1 C 65 % 1016,2 hPa 0,0 l/m 4,2 km/h (1 Bft) S-SW 202 -4,7 C 0,2 C 2,7 km/h (1 Bft)
25.01.2014 15:40 1,0 C 66 % 1016,2 hPa 0,0 l/m 4,2 km/h (1 Bft) S 180 -4,6 C 0,2 C 3,1 km/h (1 Bft)
25.01.2014 15:45 1,0 C 66 % 1016,4 hPa 0,0 l/m 4,2 km/h (1 Bft) S-SO 157 -4,6 C 0,1 C 7,4 km/h (2 Bft)
25.01.2014 15:50 0,8 C 67 % 1016,4 hPa 0,0 l/m 3,7 km/h (1 Bft) SO 135 -4,6 C 0,2 C 4,0 km/h (1 Bft)
25.01.2014 15:55 0,7 C 67 % 1016,4 hPa 0,0 l/m 3,2 km/h (1 Bft) S-SO 157 -4,7 C 0,6 C 4,8 km/h (1 Bft)
25.01.2014 16:00 0,7 C 68 % 1016,4 hPa 0,0 l/m 3,2 km/h (1 Bft) S 180 -4,5 C 0,5 C 4,0 km/h (1 Bft)
25.01.2014 16:05 0,6 C 69 % 1016,6 hPa 0,0 l/m 3,5 km/h (1 Bft) S 180 -4,4 C 0,2 C 3,9 km/h (1 Bft)
25.01.2014 16:10 0,4 C 69 % 1016,6 hPa 0,0 l/m 3,1 km/h (1 Bft) S-SW 202 -4,6 C 0,3 C 7,1 km/h (2 Bft)
25.01.2014 16:15 0,3 C 70 % 1016,6 hPa 0,0 l/m 4,0 km/h (1 Bft) S-SW 202 -4,5 C -0,6 C 4,5 km/h (1 Bft)
25.01.2014 16:20 0,1 C 71 % 1016,6 hPa 0,0 l/m 5,1 km/h (1 Bft) S 180 -4,5 C -1,2 C 3,1 km/h (1 Bft)
25.01.2014 16:25 0,1 C 71 % 1016,8 hPa 0,0 l/m 4,7 km/h (1 Bft) S-SO 157 -4,5 C -1,1 C 6,4 km/h (2 Bft)
25.01.2014 16:30 0,0 C 70 % 1016,8 hPa 0,0 l/m 4,8 km/h (1 Bft) W-SW 247 -4,8 C -1,3 C 7,6 km/h (2 Bft)
25.01.2014 16:35 -0,1 C 70 % 1016,8 hPa 0,0 l/m 4,8 km/h (1 Bft) S 180 -4,9 C -1,4 C 5,6 km/h (1 Bft)
25.01.2014 16:40 -0,1 C 70 % 1016,8 hPa 0,0 l/m 4,7 km/h (1 Bft) S 180 -4,9 C -1,4 C 5,0 km/h (1 Bft)
25.01.2014 16:45 -0,2 C 70 % 1017,0 hPa 0,0 l/m 4,5 km/h (1 Bft) S 180 -5,0 C -1,3 C 3,5 km/h (1 Bft)
25.01.2014 16:50 -0,4 C 70 % 1017,0 hPa 0,0 l/m 4,5 km/h (1 Bft) S-SW 202 -5,2 C -1,5 C 2,6 km/h (1 Bft)
25.01.2014 16:55 -0,5 C 70 % 1017,0 hPa 0,0 l/m 4,3 km/h (1 Bft) S-SO 157 -5,3 C -1,5 C 7,6 km/h (2 Bft)
25.01.2014 17:00 -0,6 C 70 % 1017,0 hPa 0,0 l/m 5,3 km/h (1 Bft) S 180 -5,4 C -2,2 C 7,1 km/h (2 Bft)
25.01.2014 17:05 -0,7 C 70 % 1017,2 hPa 0,0 l/m 5,8 km/h (2 Bft) S-SW 202 -5,5 C -2,4 C 6,1 km/h (2 Bft)
25.01.2014 17:10 -0,8 C 71 % 1017,2 hPa 0,0 l/m 5,3 km/h (1 Bft) S 180 -5,4 C -2,3 C 6,4 km/h (2 Bft)
25.01.2014 17:15 -0,8 C 72 % 1017,2 hPa 0,0 l/m 4,7 km/h (1 Bft) S 180 -5,2 C -2,1 C 5,5 km/h (1 Bft)
25.01.2014 17:20 -0,8 C 72 % 1017,2 hPa 0,0 l/m 4,2 km/h (1 Bft) SW 225 -5,2 C -2,0 C 4,5 km/h (1 Bft)
25.01.2014 17:25 -0,8 C 72 % 1017,2 hPa 0,0 l/m 4,0 km/h (1 Bft) S 180 -5,2 C -1,9 C 5,5 km/h (1 Bft)
25.01.2014 17:30 -0,8 C 73 % 1017,2 hPa 0,0 l/m 3,5 km/h (1 Bft) SO 135 -5,0 C -1,7 C 4,8 km/h (1 Bft)
25.01.2014 17:35 -0,8 C 73 % 1017,2 hPa 0,0 l/m 4,3 km/h (1 Bft) O-SO 112 -5,0 C -2,2 C 3,4 km/h (1 Bft)
25.01.2014 17:40 -0,9 C 73 % 1017,2 hPa 0,0 l/m 4,8 km/h (1 Bft) O-SO 112 -5,1 C -2,5 C 5,5 km/h (1 Bft)
25.01.2014 17:45 -0,9 C 74 % 1017,4 hPa 0,0 l/m 4,3 km/h (1 Bft) O 90 -4,9 C -2,3 C 4,3 km/h (1 Bft)
25.01.2014 17:50 -0,9 C 74 % 1017,4 hPa 0,0 l/m 4,8 km/h (1 Bft) O 90 -4,9 C -2,5 C 6,4 km/h (2 Bft)
25.01.2014 17:55 -0,9 C 74 % 1017,4 hPa 0,0 l/m 5,3 km/h (1 Bft) SO 135 -4,9 C -2,7 C 7,1 km/h (2 Bft)
25.01.2014 18:00 -1,0 C 74 % 1017,4 hPa 0,0 l/m 5,3 km/h (1 Bft) O-SO 112 -5,0 C -2,7 C 6,3 km/h (2 Bft)
25.01.2014 18:05 -0,9 C 74 % 1017,2 hPa 0,0 l/m 5,1 km/h (1 Bft) SO 135 -4,9 C -2,7 C 5,1 km/h (1 Bft)
25.01.2014 18:10 -0,9 C 74 % 1017,2 hPa 0,0 l/m 5,5 km/h (1 Bft) O-SO 112 -4,9 C -2,8 C 6,4 km/h (2 Bft)
25.01.2014 18:15 -1,0 C 74 % 1017,2 hPa 0,0 l/m 4,8 km/h (1 Bft) O-SO 112 -5,0 C -2,5 C 6,1 km/h (2 Bft)
25.01.2014 18:20 -0,9 C 74 % 1017,2 hPa 0,0 l/m 4,3 km/h (1 Bft) O-SO 112 -4,9 C -2,3 C 4,8 km/h (1 Bft)
25.01.2014 18:25 -0,9 C 74 % 1017,0 hPa 0,0 l/m 5,0 km/h (1 Bft) O-SO 112 -4,9 C -2,6 C 6,4 km/h (2 Bft)
25.01.2014 18:30 -1,0 C 74 % 1017,0 hPa 0,0 l/m 5,8 km/h (2 Bft) O-SO 112 -5,0 C -2,9 C 6,4 km/h (2 Bft)
25.01.2014 18:35 -1,0 C 74 % 1017,0 hPa 0,0 l/m 6,3 km/h (2 Bft) O-SO 112 -5,0 C -3,2 C 7,2 km/h (2 Bft)
25.01.2014 18:40 -1,0 C 74 % 1017,0 hPa 0,0 l/m 6,3 km/h (2 Bft) O 90 -5,0 C -3,2 C 7,1 km/h (2 Bft)
25.01.2014 18:45 -1,0 C 74 % 1016,9 hPa 0,0 l/m 5,8 km/h (2 Bft) O 90 -5,0 C -2,9 C 6,6 km/h (2 Bft)
25.01.2014 18:48 -1,0 C 74 % 1016,9 hPa 0,0 l/m 4,7 km/h (1 Bft) O-SO 112 -5,0 C -2,4 C 6,6 km/h (2 Bft)
25.01.2014 18:50 -1,0 C 74 % 1016,9 hPa 0,0 l/m 4,7 km/h (1 Bft) O-SO 112 -5,0 C -2,4 C 6,6 km/h (2 Bft)
25.01.2014 18:55 -1,0 C 74 % 1016,9 hPa 0,0 l/m 4,0 km/h (1 Bft) SO 135 -5,0 C -2,1 C 5,6 km/h (1 Bft)
25.01.2014 19:00 -1,0 C 74 % 1016,9 hPa 0,0 l/m 4,0 km/h (1 Bft) S-SO 157 -5,0 C -2,1 C 4,3 km/h (1 Bft)
25.01.2014 19:05 -1,1 C 74 % 1017,1 hPa 0,0 l/m 4,0 km/h (1 Bft) SO 135 -5,1 C -2,1 C 3,7 km/h (1 Bft)
25.01.2014 19:10 -1,1 C 75 % 1017,1 hPa 0,0 l/m 4,0 km/h (1 Bft) O-SO 112 -5,0 C -2,2 C 3,9 km/h (1 Bft)
25.01.2014 19:15 -1,1 C 75 % 1017,1 hPa 0,0 l/m 4,3 km/h (1 Bft) O-SO 112 -5,0 C -2,4 C 5,1 km/h (1 Bft)
25.01.2014 19:20 -1,1 C 75 % 1017,1 hPa 0,0 l/m 4,5 km/h (1 Bft) O-SO 112 -5,0 C -2,5 C 5,0 km/h (1 Bft)
25.01.2014 19:25 -1,2 C 75 % 1016,8 hPa 0,0 l/m 4,5 km/h (1 Bft) O-SO 112 -5,0 C -2,6 C 9,3 km/h (2 Bft)
25.01.2014 19:30 -1,3 C 75 % 1016,8 hPa 0,0 l/m 4,8 km/h (1 Bft) S 180 -5,1 C -2,9 C 5,5 km/h (1 Bft)
25.01.2014 19:35 -1,3 C 75 % 1016,8 hPa 0,0 l/m 4,8 km/h (1 Bft) O 90 -5,1 C -2,9 C 6,0 km/h (2 Bft)
25.01.2014 19:40 -1,3 C 75 % 1016,8 hPa 0,0 l/m 4,3 km/h (1 Bft) O 90 -5,1 C -2,7 C 9,8 km/h (2 Bft)
25.01.2014 19:45 -1,2 C 75 % 1017,2 hPa 0,0 l/m 4,8 km/h (1 Bft) O-SO 112 -5,0 C -2,9 C 7,6 km/h (2 Bft)
25.01.2014 19:50 -1,3 C 75 % 1017,2 hPa 0,0 l/m 5,0 km/h (1 Bft) SO 135 -5,1 C -3,2 C 7,4 km/h (2 Bft)
25.01.2014 19:55 -1,3 C 76 % 1017,2 hPa 0,0 l/m 5,1 km/h (1 Bft) S-SO 157 -5,0 C -3,2 C 5,5 km/h (1 Bft)
25.01.2014 20:00 -1,1 C 75 % 1017,2 hPa 0,0 l/m 6,9 km/h (2 Bft) N-NW 337 -5,0 C -4,5 C 14,5 km/h (3 Bft)
25.01.2014 20:05 -1,2 C 75 % 1016,6 hPa 0,0 l/m 7,1 km/h (2 Bft) O 90 -5,0 C -4,7 C 7,1 km/h (2 Bft)
25.01.2014 20:10 -1,2 C 75 % 1016,6 hPa 0,0 l/m 7,1 km/h (2 Bft) O-SO 112 -5,0 C -4,7 C 7,1 km/h (2 Bft)
25.01.2014 20:15 -1,4 C 75 % 1016,6 hPa 0,0 l/m 6,1 km/h (2 Bft) O-SO 112 -5,2 C -3,6 C 6,0 km/h (2 Bft)
25.01.2014 20:20 -1,4 C 75 % 1016,6 hPa 0,0 l/m 5,1 km/h (1 Bft) O 90 -5,2 C -3,2 C 7,2 km/h (2 Bft)
25.01.2014 20:25 -1,5 C 75 % 1016,4 hPa 0,0 l/m 4,5 km/h (1 Bft) SO 135 -5,3 C -3,1 C 2,9 km/h (1 Bft)
25.01.2014 20:30 -1,6 C 75 % 1016,4 hPa 0,0 l/m 2,3 km/h (1 Bft) O-SO 112 -5,4 C -1,6 C 2,3 km/h (1 Bft)
25.01.2014 20:35 -1,7 C 76 % 1016,4 hPa 0,0 l/m 2,3 km/h (1 Bft) O-NO 67 -5,4 C -1,7 C 3,4 km/h (1 Bft)
25.01.2014 20:40 -1,9 C 76 % 1016,4 hPa 0,0 l/m 1,8 km/h (1 Bft) SO 135 -5,6 C -1,8 C 0,0 km/h (0 Bft)
25.01.2014 20:45 -2,0 C 76 % 1015,9 hPa 0,0 l/m 1,8 km/h (1 Bft) S 180 -5,6 C -1,9 C 3,9 km/h (1 Bft)
25.01.2014 20:50 -2,2 C 76 % 1015,9 hPa 0,0 l/m 2,6 km/h (1 Bft) S-SO 157 -5,8 C -2,3 C 1,9 km/h (1 Bft)
25.01.2014 20:55 -2,0 C 76 % 1015,9 hPa 0,0 l/m 2,4 km/h (1 Bft) O 90 -5,6 C -2,2 C 2,6 km/h (1 Bft)
25.01.2014 21:00 -2,0 C 76 % 1015,9 hPa 0,0 l/m 3,4 km/h (1 Bft) O-SO 112 -5,6 C -3,0 C 6,1 km/h (2 Bft)
25.01.2014 21:05 -2,0 C 76 % 1015,4 hPa 0,0 l/m 3,4 km/h (1 Bft) O-SO 112 -5,6 C -2,9 C 6,8 km/h (2 Bft)
25.01.2014 21:10 -1,9 C 76 % 1015,4 hPa 0,0 l/m 3,2 km/h (1 Bft) O 90 -5,6 C -2,8 C 5,0 km/h (1 Bft)
25.01.2014 21:15 -2,0 C 77 % 1015,4 hPa 0,0 l/m 2,9 km/h (1 Bft) O-SO 112 -5,5 C -2,6 C 2,1 km/h (1 Bft)
25.01.2014 21:20 -2,2 C 77 % 1015,4 hPa 0,0 l/m 2,9 km/h (1 Bft) O-SO 112 -5,7 C -2,6 C 4,0 km/h (1 Bft)
25.01.2014 21:25 -2,0 C 77 % 1015,3 hPa 0,0 l/m 2,4 km/h (1 Bft) O-SO 112 -5,5 C -2,2 C 1,9 km/h (1 Bft)
25.01.2014 21:30 -1,9 C 77 % 1015,3 hPa 0,0 l/m 2,1 km/h (1 Bft) SO 135 -5,4 C -2,0 C 0,0 km/h (0 Bft)
25.01.2014 21:35 -2,0 C 77 % 1015,3 hPa 0,0 l/m 2,4 km/h (1 Bft) SO 135 -5,5 C -2,3 C 4,5 km/h (1 Bft)
25.01.2014 21:40 -2,2 C 77 % 1015,3 hPa 0,0 l/m 2,4 km/h (1 Bft) S-SO 157 -5,7 C -2,4 C 4,2 km/h (1 Bft)
25.01.2014 21:45 -2,3 C 76 % 1015,2 hPa 0,0 l/m 2,4 km/h (1 Bft) O 90 -5,9 C -2,4 C 6,4 km/h (2 Bft)
25.01.2014 21:50 -2,0 C 76 % 1015,2 hPa 0,0 l/m 3,9 km/h (1 Bft) S-SO 157 -5,6 C -3,5 C 6,6 km/h (2 Bft)
25.01.2014 21:55 -2,0 C 75 % 1015,2 hPa 0,0 l/m 4,7 km/h (1 Bft) O-SO 112 -5,8 C -3,9 C 5,1 km/h (1 Bft)
25.01.2014 22:00 -2,0 C 75 % 1015,2 hPa 0,0 l/m 5,5 km/h (1 Bft) O-SO 112 -5,8 C -4,2 C 5,3 km/h (1 Bft)
25.01.2014 22:05 -2,1 C 75 % 1014,8 hPa 0,0 l/m 4,7 km/h (1 Bft) SO 135 -5,9 C -3,8 C 4,5 km/h (1 Bft)
25.01.2014 22:10 -2,6 C 75 % 1014,8 hPa 0,0 l/m 2,3 km/h (1 Bft) O-SO 112 -6,4 C -2,3 C 0,0 km/h (0 Bft)
25.01.2014 22:15 -2,7 C 75 % 1014,8 hPa 0,0 l/m 1,1 km/h (1 Bft) O-SO 112 -6,5 C -2,4 C 0,0 km/h (0 Bft)
25.01.2014 22:20 -2,8 C 76 % 1014,8 hPa 0,0 l/m 0,0 km/h (0 Bft) S-SO 157 -6,4 C -2,7 C 0,0 km/h (0 Bft)
25.01.2014 22:25 -3,0 C 77 % 1014,2 hPa 0,0 l/m 0,0 km/h (0 Bft) O 90 -6,4 C -2,9 C 2,1 km/h (1 Bft)
25.01.2014 22:30 -2,7 C 78 % 1014,2 hPa 0,0 l/m 2,1 km/h (1 Bft) NO 45 -6,0 C -2,9 C 4,3 km/h (1 Bft)
25.01.2014 22:35 -2,7 C 78 % 1014,2 hPa 0,0 l/m 3,1 km/h (1 Bft) O-SO 112 -6,0 C -3,6 C 2,3 km/h (1 Bft)
25.01.2014 22:40 -2,6 C 78 % 1014,2 hPa 0,0 l/m 2,6 km/h (1 Bft) SO 135 -5,9 C -3,1 C 0,0 km/h (0 Bft)
25.01.2014 22:45 -3,0 C 78 % 1014,1 hPa 0,0 l/m 1,4 km/h (1 Bft) S-SO 157 -6,3 C -2,8 C 0,0 km/h (0 Bft)
25.01.2014 22:50 -3,0 C 78 % 1014,1 hPa 0,0 l/m 0,8 km/h (0 Bft) O 90 -6,3 C -2,9 C 2,3 km/h (1 Bft)
25.01.2014 22:55 -2,7 C 79 % 1014,1 hPa 0,0 l/m 1,0 km/h (0 Bft) SO 135 -5,8 C -2,9 C 0,0 km/h (0 Bft)
25.01.2014 23:00 -2,9 C 79 % 1014,1 hPa 0,0 l/m 0,3 km/h (0 Bft) NO 45 -6,0 C -2,8 C 0,0 km/h (0 Bft)
25.01.2014 23:05 -2,9 C 79 % 1013,9 hPa 0,0 l/m 0,3 km/h (0 Bft) NO 45 -6,0 C -2,8 C 5,3 km/h (1 Bft)
25.01.2014 23:10 -2,5 C 81 % 1013,9 hPa 0,0 l/m 1,3 km/h (1 Bft) N-NO 22 -5,3 C -2,6 C 0,0 km/h (0 Bft)
25.01.2014 23:15 -2,7 C 81 % 1013,9 hPa 0,0 l/m 1,3 km/h (1 Bft) N-NO 22 -5,5 C -2,5 C 0,0 km/h (0 Bft)
25.01.2014 23:20 -2,5 C 81 % 1013,9 hPa 0,0 l/m 0,0 km/h (0 Bft) NO 45 -5,3 C -2,4 C 0,0 km/h (0 Bft)
25.01.2014 23:25 -2,4 C 81 % 1013,3 hPa 0,0 l/m 0,0 km/h (0 Bft) NO 45 -5,2 C -2,4 C 0,0 km/h (0 Bft)
25.01.2014 23:30 -2,4 C 81 % 1013,3 hPa 0,0 l/m 0,0 km/h (0 Bft) O-SO 112 -5,2 C -2,4 C 0,0 km/h (0 Bft)
25.01.2014 23:35 -2,4 C 81 % 1013,3 hPa 0,0 l/m 0,0 km/h (0 Bft) SO 135 -5,2 C -2,3 C 0,0 km/h (0 Bft)
25.01.2014 23:40 -2,5 C 81 % 1013,3 hPa 0,0 l/m 0,3 km/h (0 Bft) S-SO 157 -5,3 C -2,3 C 0,0 km/h (0 Bft)
25.01.2014 23:45 -2,5 C 81 % 1012,7 hPa 0,0 l/m 0,3 km/h (0 Bft) S 180 -5,3 C -2,4 C 0,0 km/h (0 Bft)
25.01.2014 23:50 -2,6 C 81 % 1012,7 hPa 0,0 l/m 0,3 km/h (0 Bft) S-SO 157 -5,4 C -2,4 C 0,0 km/h (0 Bft)
25.01.2014 23:55 -2,5 C 81 % 1012,7 hPa 0,0 l/m 0,3 km/h (0 Bft) S-SO 157 -5,3 C -2,4 C 0,0 km/h (0 Bft)
_ Min-Zeit 22:50 15:15 23:55 - 23:35 - - 22:15 20:10 23:55
Minimum _ -3,0 C 62 % 1012,7 hPa - 0,0 km/h (0 Bft) - - -6,5 C -4,7 C 0,0 km/h (0 Bft)
_ Max-Zeit 13:05 08:50 09:20 23:55 20:10 - - 11:35 11:45 20:00
Maximum _ 3,5 C 90 % 1018,6 hPa 0,0 l/m 7,1 km/h
O-SO (2 Bft)
- - -1,1 C 4,5 C 14,5 km/h
N-NW (3 Bft)
Durchschnitt _ -0,7 C 79 % 1016,9 hPa #0,0 l/m 2,6 km/h (1 Bft) S - -3,9 C -1,1 C 3,3 km/h (1 Bft)